Miscellaneous Local Product
Issued by NWS North Platte, NE

Home | Current Version | Previous Version | Graphics & Text | Print | Product List | Glossary On
Versions: 1 2 3 4 5 6 7 8 9 10 11 12 13 14 15 16 17 18 19 20 21 22 23 24 25 26 27 28 29 30 31 32 33 34 35 36 37 38 39 40 41 42 43 44 45 46 47 48 49 50
000
AXUS43 KLBF 171810
MISLBF


WESTERN AND NORTH CENTRAL NEBRASKA HOURLY WEATHER ROUNDUP
NATIONAL WEATHER SERVICE NORTH PLATTE NE
100 PM CDT WED SEP 17 2014

***STATIONS NOT REPORTING VARIABLES SUCH AS SKY/WEATHER OR
PRESSURE ARE PROVIDED BY THE NEBRASKA DEPARTMENT OF
ROADS...RAWS...AND APRS NETWORKS...AND ARE NOT UNDER
NATIONAL WEATHER SERVICE QUALITY CONTROL***

...OBSERVATIONS IN AND NEAR THE EASTERN PANHANDLE OF NEBRASKA...

CITY           SKY/WX    TMP DP  RH WIND       PRES   REMARKS
PINE RIDGE     SUNNY     75  54  47 VRB3      29.97F
CHADRON        SUNNY     78  51  38 SE5       29.96F
ALLIANCE       SUNNY     81  47  30 CALM      29.98F
SIDNEY         SUNNY     84  43  23 N8        30.02S
WHITECLAY        N/A     76  53  44 CALM        N/A
RUSHVILLE        N/A     85  45  24 E12         N/A
LISCO            N/A     81  48  31 W6          N/A
BIG SPRINGS      N/A     74  54  48 CALM        N/A
$$

...OBSERVATIONS IN NORTH CENTRAL NEBRASKA...

CITY           SKY/WX    TMP DP  RH WIND       PRES   REMARKS
VALENTINE      SUNNY     80  54  40 E9        29.94S
THEDFORD       SUNNY     82  54  37 E6        29.95S
AINSWORTH      SUNNY     75  57  53 E8        29.94F
O`NEILL        SUNNY     77  63  61 E6        29.93S
ORD            SUNNY     78  63  59 E5        29.91S
BROKEN BOW     MOSUNNY   84  58  40 E9        29.93S
SPRINGVIEW       N/A     77  58  52 E6          N/A
ROSE             N/A     85  57  38 NE7         N/A
NEWPORT          N/A     78  61  54 E8          N/A
COMSTOCK         N/A     85  64  49 SE6         N/A
CHAMBERS         N/A     79  63  58 E3          N/A
$$

...OBSERVATIONS IN SOUTHWEST NEBRASKA AND FAR NORTHEAST COLORADO...

CITY           SKY/WX    TMP DP  RH WIND       PRES   REMARKS
WRAY           FAIR      85  45  24 W5        29.98F
HOLYOKE        FAIR      84  52  32 S3        29.97F
IMPERIAL       SUNNY     82  50  32 SE9       29.96F
OGALLALA       SUNNY     82  58  44 SE3       29.95F
NORTH PLATTE   SUNNY     79  60  52 SE9       29.94F
MCCOOK         SUNNY     73  60  63 VRB5      29.95F
PAXTON           N/A     72  66  81 CALM        N/A
SUTHERLAND       N/A     85  55  35 SE8         N/A
BRADY            N/A     77  62  58 CALM        N/A
GOTHENBURG       N/A     76  58  52 SE5         N/A
CALLAWAY         N/A     78  66  66 SE7         N/A
$$

...SOME WEATHER OBSERVATIONS FROM AROUND THE REGION...

CITY           SKY/WX    TMP DP  RH WIND       PRES   REMARKS
DENVER         MOSUNNY   84  38  19 CALM      30.09F
LARAMIE        SUNNY     76  36  23 VRB5      30.20F
CHEYENNE       SUNNY     82  36  19 N8        30.12F
SCOTTSBLUFF    SUNNY     83  45  26 VRB3      29.99F
RAPID CITY     MOSUNNY   73  49  42 E5        29.97F
PIERRE         SUNNY     77  51  40 NE8       29.92F
WINNER         FAIR      77  58  51 E10       29.94S
SIOUX FALLS    FAIR      73  58  59 NE5       29.93F
OMAHA          FAIR      75  59  57 E5        29.93F
GRAND ISLAND   FAIR      77  61  57 E10       29.93F
KANSAS CITY    CLOUDY    70  66  87 E5        29.94S
WICHITA        FAIR      92  62  36 SW14      29.88F HX  92
HAYS           FAIR      79  64  61 E9        29.93S
LIBERAL        FAIR      88  61  40 W13       29.97F
GOODLAND       SUNNY     84  54  35 SE9       29.98F
$$



USA.gov is the U.S. government's official web portal to all federal, state and local government web resources and services.